Content
SEND FEEDBACK

Daily
Averages
Monthly
Summary
United States of America

AGAT, GUAM


Home > North America > United States > Guam
Elevation: 364 feet     Latitude: 13 33N     Longitude: 144 50E

WEATHER
 
SELECT A DAY
Number of Records: 215,568;   Date Range: 1/1/95 - 12/19/14
 
SHARE

PRINT THIS DATA

[ ← Previous Day ]
WEATHER ALMANAC - FEBRUARY 18, 2013
[ Next Day → ]
[ °C ]   °F
Weather ElementAverageHighLow
Temperature79.4 °F85.1 °F (11:54 am)73.9 °F (6:54 am)
Dewpoint73.2 °F75.2 °F (7:26 pm)71.1 °F (3:54 am)
Humidity81.7 %94 % (7:26 pm)68 % (11:54 am)
Barometer29.84 in29.89 in (11:01 pm)29.78 in (2:54 pm)
Wind Speed17.2 mph24.2 mph (12:54 pm)
Wind Gust31.1 mph (11:54 am)
Weather ElementAverage
Visibility9.8 mi
Wind DirectionENE (75.2 °)

Weather ElementTotal
Precipitation0.05 in
Cooling Degree Days14.5 (Base 65)
Growing Degree Days29.5 (Base 50)
Averaged from 27 records on February 18, 2013
WEATHER CONDITIONS BREAKOUT
WIND DIRECTION BREAKOUT
WEATHER BY HOUR - FEBRUARY 18, 2013
[ °C ]   °F
Local TimeTemperatureDewpointHumidityBarometerVisibilityWind DirectionWind SpeedGust SpeedPrecipitationEventsConditions
1:54 AM76.1 °F73.0 °F90 %29.83 in10.0 miENE (60°)13.8 mph0.00 inMostly Cloudy
2:54 AM77.4 °F73.4 °F88 %29.83 in8.0 miNE (50°)18.4 mph28.8 mph0.00 inRainLight Rain
3:54 AM77.4 °F71.1 °F81 %29.83 in10.0 miENE (70°)17.3 mph0.01 inOvercast
4:54 AM75.0 °F71.1 °F87 %29.83 in10.0 miENE (70°)17.3 mphScattered Clouds
5:54 AM75.0 °F71.1 °F87 %29.83 in10.0 miENE (60°)18.4 mph0.00 inScattered Clouds
6:54 AM73.9 °F72.0 °F93 %29.85 in10.0 miENE (70°)13.8 mph0.00 inScattered Clouds
7:54 AM78.4 °F72.0 °F80 %29.86 in10.0 miEast (80°)17.3 mph0.00 inPartly Cloudy
8:54 AM79.9 °F71.4 °F75 %29.87 in10.0 miENE (70°)20.7 mph27.6 mphPartly Cloudy
9:54 AM82.6 °F71.8 °F70 %29.86 in10.0 miENE (60°)21.9 mph29.9 mphPartly Cloudy
10:54 AM83.7 °F72.3 °F69 %29.85 in10.0 miENE (70°)21.9 mph29.9 mphPartly Cloudy
11:54 AM85.1 °F73.4 °F68 %29.83 in10.0 miEast (80°)19.6 mph31.1 mphMostly Cloudy
12:54 PM83.8 °F73.0 °F70 %29.82 in10.0 miEast (80°)24.2 mph31.1 mphScattered Clouds
1:54 PM84.0 °F73.8 °F71 %29.81 in10.0 miEast (80°)20.7 mph29.9 mphScattered Clouds
2:54 PM83.5 °F73.6 °F72 %29.78 in10.0 miENE (70°)18.4 mph26.5 mph0.00 inMostly Cloudy
3:54 PM83.7 °F73.0 °F70 %29.78 in10.0 miEast (80°)18.4 mph27.6 mphScattered Clouds
4:54 PM83.5 °F73.6 °F72 %29.80 in10.0 miEast (80°)13.8 mph24.2 mphMostly Cloudy
5:54 PM82.0 °F72.0 °F71 %29.81 in10.0 miEast (80°)17.3 mph28.8 mphPartly Cloudy
6:54 PM77.5 °F75.0 °F92 %29.83 in6.0 miEast (80°)12.7 mph25.3 mph0.04 inRainLight Rain
7:26 PM77.0 °F75.2 °F94 %29.85 in10.0 miEast (80°)13.8 mph24.2 mph0.00 inMostly Cloudy
7:50 PM78.8 °F75.2 °F89 %29.86 in10.0 miEast (80°)20.7 mph26.5 mph0.00 inScattered Clouds
7:54 PM78.4 °F75.0 °F89 %29.84 in10.0 miEast (80°)17.3 mph26.5 mph0.00 inScattered Clouds
8:54 PM78.3 °F73.9 °F87 %29.86 in10.0 miEast (90°)17.3 mph25.3 mphPartly Cloudy
9:54 PM79.0 °F74.1 °F85 %29.86 in10.0 miEast (80°)13.8 mph25.3 mphScattered Clouds
10:54 PM79.3 °F74.3 °F84 %29.87 in10.0 miEast (80°)15.0 mphMostly Cloudy
11:01 PM75.2 °F73.4 °F94 %29.89 in10.0 miEast (80°)13.8 mphMostly Cloudy
11:23 PM75.2 °F73.4 °F94 %29.89 in10.0 miEast (90°)12.7 mph21.9 mphScattered Clouds
11:54 PM79.3 °F74.5 °F85 %29.86 in10.0 miEast (80°)13.8 mph21.9 mphPartly Cloudy
Hourly data recorded from PGUM, located miles away from Agat, Guam







STORIES FROM OUR PARTNERS